• In Schweiz
  • Länderverzeichnis
  • Für 7 Tage
  • Wassertemperatur
  • Satellitenkarten
  • Wetterkarte
  • Widgets
  • user-avatar
    Anmelden

    Stündliche Wetter Thimbu

    Heute, 27 Mai, Sonntag

    Zeit Temperatur Niederschläge Wind Luftdruck Luftfeuchtigkeit
    00:00 +10°C° 0 mm 1 m/S 525 mmHg 93%
    01:00 +10°C° 0 mm 1 m/S 525 mmHg 93%
    02:00 +10°C° 0 mm 1 m/S 525 mmHg 92%
    03:00 +10°C° 0 mm 1 m/S 524 mmHg 92%
    04:00 +10°C° 0 mm 1 m/S 525 mmHg 91%
    05:00 +10°C° 0 mm 1 m/S 525 mmHg 90%
    06:00 +10°C° 0 mm 1 m/S 525 mmHg 87%
    07:00 +12°C° 0,1 mm 1 m/S 526 mmHg 81%
    08:00 +13°C° 0,1 mm 1 m/S 527 mmHg 76%
    09:00 +15°C° 0,1 mm 1 m/S 528 mmHg 70%
    10:00 +16°C° 0,2 mm 2 m/S 528 mmHg 67%
    11:00 +17°C° 0,2 mm 2 m/S 528 mmHg 64%
    12:00 +17°C° 0 mm 3 m/S 529 mmHg 61%
    13:00 +16°C° 0,4 mm 3 m/S 528 mmHg 65%
    14:00 +16°C° 0,4 mm 3 m/S 527 mmHg 70%
    15:00 +14°C° 0,4 mm 3 m/S 526 mmHg 74%
    16:00 +14°C° 0,2 mm 2 m/S 526 mmHg 78%
    17:00 +14°C° 0,2 mm 2 m/S 525 mmHg 81%
    18:00 +13°C° 0,2 mm 2 m/S 525 mmHg 85%
    19:00 +12°C° 0,1 mm 2 m/S 525 mmHg 88%
    20:00 +11°C° 0,1 mm 1 m/S 524 mmHg 91%
    21:00 +11°C° 0,1 mm 1 m/S 524 mmHg 93%
    22:00 +10°C° 0 mm 1 m/S 524 mmHg 92%
    23:00 +10°C° 0 mm 1 m/S 524 mmHg 91%

    Morgen, 28 Mai, Montag

    Zeit Temperatur Niederschläge Wind Luftdruck Luftfeuchtigkeit
    00:00 +10°C° 0 mm 1 m/S 524 mmHg 90%
    01:00 +9°C° 0 mm 1 m/S 524 mmHg 89%
    02:00 +9°C° 0 mm 1 m/S 523 mmHg 88%
    03:00 +8°C° 0 mm 1 m/S 523 mmHg 87%
    04:00 +9°C° 0,1 mm 1 m/S 523 mmHg 85%
    05:00 +9°C° 0,1 mm 1 m/S 523 mmHg 83%
    06:00 +9°C° 0,1 mm 1 m/S 523 mmHg 81%
    07:00 +11°C° 0,1 mm 1 m/S 524 mmHg 73%
    08:00 +13°C° 0,1 mm 2 m/S 526 mmHg 64%
    09:00 +15°C° 0,1 mm 2 m/S 527 mmHg 56%
    10:00 +16°C° 0,3 mm 2 m/S 527 mmHg 56%
    11:00 +16°C° 0,3 mm 2 m/S 527 mmHg 56%
    12:00 +17°C° 0,3 mm 3 m/S 527 mmHg 56%
    13:00 +16°C° 0,3 mm 3 m/S 526 mmHg 58%
    14:00 +16°C° 0,3 mm 3 m/S 525 mmHg 59%
    15:00 +16°C° 0,3 mm 3 m/S 525 mmHg 60%
    16:00 +15°C° 0,3 mm 2 m/S 524 mmHg 66%
    17:00 +14°C° 0,3 mm 2 m/S 523 mmHg 71%
    18:00 +13°C° 0,3 mm 2 m/S 523 mmHg 77%
    19:00 +12°C° 0,4 mm 2 m/S 523 mmHg 80%
    20:00 +11°C° 0,4 mm 1 m/S 522 mmHg 84%
    21:00 +10°C° 0,4 mm 1 m/S 522 mmHg 87%
    22:00 +10°C° 0,1 mm 1 m/S 523 mmHg 87%
    23:00 +9°C° 0,1 mm 1 m/S 523 mmHg 87%

    übermorgen, 29 Mai, Dienstag

    Zeit Temperatur Niederschläge Wind Luftdruck Luftfeuchtigkeit
    00:00 +9°C° 0,1 mm 1 m/S 523 mmHg 86%
    01:00 +9°C° 0,1 mm 1 m/S 522 mmHg 87%
    02:00 +9°C° 0,1 mm 1 m/S 522 mmHg 88%
    03:00 +8°C° 0,1 mm 1 m/S 522 mmHg 88%
    04:00 +8°C° 0 mm 1 m/S 522 mmHg 86%
    05:00 +9°C° 0 mm 1 m/S 522 mmHg 84%
    06:00 +9°C° 0 mm 1 m/S 522 mmHg 82%
    07:00 +11°C° 0 mm 1 m/S 524 mmHg 74%
    08:00 +12°C° 0 mm 1 m/S 525 mmHg 66%
    09:00 +14°C° 0 mm 1 m/S 526 mmHg 58%
    10:00 +15°C° 0 mm 2 m/S 526 mmHg 55%
    11:00 +16°C° 0 mm 2 m/S 526 mmHg 53%
    12:00 +17°C° 0 mm 3 m/S 526 mmHg 51%
    13:00 +17°C° 0,1 mm 3 m/S 525 mmHg 53%
    14:00 +17°C° 0,1 mm 3 m/S 525 mmHg 55%
    15:00 +17°C° 0,1 mm 3 m/S 524 mmHg 57%
    16:00 +15°C° 0,3 mm 2 m/S 524 mmHg 65%
    17:00 +14°C° 0,3 mm 2 m/S 523 mmHg 73%
    18:00 +13°C° 0,3 mm 2 m/S 522 mmHg 82%
    19:00 +12°C° 0,2 mm 2 m/S 522 mmHg 85%
    20:00 +11°C° 0,2 mm 1 m/S 523 mmHg 88%
    21:00 +10°C° 0,2 mm 1 m/S 523 mmHg 91%
    22:00 +10°C° 0,2 mm 1 m/S 523 mmHg 91%
    23:00 +10°C° 0,2 mm 1 m/S 523 mmHg 91%

    30 Mai, Mittwoch

    Zeit Temperatur Niederschläge Wind Luftdruck Luftfeuchtigkeit
    00:00 +10°C° 0,2 mm 1 m/S 523 mmHg 91%
    01:00 +10°C° 0,1 mm 1 m/S 523 mmHg 90%
    02:00 +9°C° 0,1 mm 1 m/S 522 mmHg 89%
    03:00 +9°C° 0,1 mm 1 m/S 522 mmHg 88%
    04:00 +9°C° 0 mm 1 m/S 522 mmHg 87%
    05:00 +9°C° 0 mm 1 m/S 522 mmHg 86%
    06:00 +9°C° 0 mm 1 m/S 523 mmHg 85%
    07:00 +11°C° 0 mm 1 m/S 524 mmHg 77%
    08:00 +13°C° 0 mm 1 m/S 525 mmHg 69%
    09:00 +15°C° 0 mm 2 m/S 526 mmHg 62%
    10:00 +15°C° 0,2 mm 2 m/S 526 mmHg 64%
    11:00 +15°C° 0,2 mm 2 m/S 526 mmHg 66%
    12:00 +15°C° 0,2 mm 2 m/S 525 mmHg 69%
    13:00 +15°C° 0,3 mm 2 m/S 525 mmHg 69%
    14:00 +15°C° 0,3 mm 2 m/S 525 mmHg 69%
    15:00 +15°C° 0,3 mm 2 m/S 524 mmHg 69%
    16:00 +14°C° 0,2 mm 2 m/S 524 mmHg 74%
    17:00 +14°C° 0,2 mm 2 m/S 523 mmHg 78%
    18:00 +13°C° 0,2 mm 1 m/S 523 mmHg 82%
    19:00 +12°C° 0,2 mm 1 m/S 523 mmHg 84%
    20:00 +11°C° 0,2 mm 1 m/S 523 mmHg 86%
    21:00 +11°C° 0,2 mm 1 m/S 524 mmHg 88%
    22:00 +11°C° 0,1 mm 1 m/S 524 mmHg 87%
    23:00 +11°C° 0,1 mm 1 m/S 524 mmHg 86%

    31 Mai, Donnerstag

    Zeit Temperatur Niederschläge Wind Luftdruck Luftfeuchtigkeit
    00:00 +10°C° 0,1 mm 1 m/S 524 mmHg 85%
    01:00 +10°C° 0,1 mm 1 m/S 524 mmHg 85%
    02:00 +10°C° 0,1 mm 1 m/S 524 mmHg 86%
    03:00 +10°C° 0,1 mm 1 m/S 523 mmHg 86%
    04:00 +10°C° 0 mm 1 m/S 524 mmHg 84%
    05:00 +10°C° 0 mm 1 m/S 524 mmHg 83%
    06:00 +10°C° 0 mm 1 m/S 524 mmHg 82%
    07:00 +12°C° 0 mm 1 m/S 526 mmHg 75%
    08:00 +14°C° 0 mm 1 m/S 527 mmHg 69%
    09:00 +16°C° 0 mm 2 m/S 529 mmHg 62%
    10:00 +17°C° 0,2 mm 2 m/S 529 mmHg 62%
    11:00 +17°C° 0,2 mm 2 m/S 528 mmHg 63%
    12:00 +17°C° 0,2 mm 2 m/S 528 mmHg 63%
    13:00 +17°C° 0,3 mm 2 m/S 528 mmHg 65%
    14:00 +17°C° 0,3 mm 2 m/S 527 mmHg 67%
    15:00 +16°C° 0,3 mm 2 m/S 526 mmHg 69%
    16:00 +15°C° 0,2 mm 2 m/S 526 mmHg 74%
    17:00 +15°C° 0,2 mm 2 m/S 526 mmHg 78%
    18:00 +14°C° 0,2 mm 1 m/S 525 mmHg 82%
    19:00 +13°C° 0,1 mm 1 m/S 525 mmHg 85%
    20:00 +12°C° 0,1 mm 1 m/S 525 mmHg 88%
    21:00 +11°C° 0,1 mm 1 m/S 525 mmHg 91%
    22:00 +11°C° 0,1 mm 1 m/S 525 mmHg 91%
    23:00 +11°C° 0,1 mm 1 m/S 525 mmHg 91%

    1 Juni, Freitag

    Zeit Temperatur Niederschläge Wind Luftdruck Luftfeuchtigkeit
    00:00 +10°C° 0,1 mm 1 m/S 525 mmHg 91%
    01:00 +11°C° 0,4 mm 1 m/S 525 mmHg 90%
    02:00 +11°C° 0,4 mm 1 m/S 525 mmHg 89%
    03:00 +11°C° 0,4 mm 1 m/S 525 mmHg 89%
    04:00 +11°C° 0,2 mm 1 m/S 525 mmHg 88%
    05:00 +11°C° 0,2 mm 1 m/S 525 mmHg 87%
    06:00 +11°C° 0,2 mm 1 m/S 525 mmHg 86%
    07:00 +11°C° 0,5 mm 1 m/S 526 mmHg 83%
    08:00 +12°C° 0,5 mm 1 m/S 527 mmHg 80%
    09:00 +13°C° 0,5 mm 1 m/S 528 mmHg 78%
    10:00 +13°C° 0,6 mm 1 m/S 528 mmHg 76%
    11:00 +14°C° 0,6 mm 1 m/S 528 mmHg 74%
    12:00 +14°C° 0,6 mm 2 m/S 528 mmHg 72%
    13:00 +15°C° 0,2 mm 2 m/S 528 mmHg 69%
    14:00 +16°C° 0,2 mm 2 m/S 528 mmHg 65%
    15:00 +17°C° 0,2 mm 2 m/S 528 mmHg 62%
    16:00 +16°C° 0,1 mm 2 m/S 527 mmHg 67%
    17:00 +15°C° 0,1 mm 1 m/S 526 mmHg 72%
    18:00 +14°C° 0,1 mm 1 m/S 525 mmHg 77%
    19:00 +13°C° 0 mm 1 m/S 525 mmHg 81%
    20:00 +12°C° 0 mm 1 m/S 525 mmHg 85%
    21:00 +10°C° 0 mm 1 m/S 525 mmHg 89%
    22:00 +10°C° 0 mm 1 m/S 525 mmHg 87%
    23:00 +10°C° 0 mm 1 m/S 525 mmHg 86%
    Mehr zeigen